Regional Weather Roundup
Issued by NWS

Home | Current Version | Previous Version | Text Only | Print | Product List | Glossary On
Versions: 1 2 3 4 5 6 7 8 9 10 11 12 13 14 15 16 17 18 19 20 21 22 23 24 25 26 27 28 29 30 31 32 33 34 35 36 37 38 39 40 41 42 43 44 45 46 47 48 49 50
000
ASUS46 KSEW 211810
RWRWA

WASHINGTON REGIONAL WEATHER ROUNDUP
NATIONAL WEATHER SERVICE SEATTLE WA
1100 AM PDT THU AUG 21 2014

NOTE:"FAIR" INDICATES FEW OR NO CLOUDS BELOW 12,000 FEET WITH NO
SIGNIFICANT WEATHER AND/OR OBSTRUCTIONS TO VISIBILITY.

WAZ505-507>509-211900-
SEATTLE, TACOMA, EVERETT, AND VICINITY

CITY           SKY/WX    TMP DP  RH WIND       PRES   REMARKS
EVERETT        CLOUDY    59  51  75 W9        30.05S
6HR MIN TEMP:  54; 6HR MAX TEMP:  59;

BOEING FIELD   PTSUNNY   62  50  64 VRB5      30.05S
6HR MIN TEMP:  57; 6HR MAX TEMP:  62;

RENTON         CLOUDY    60  51  72 S5        30.05S
6HR MIN TEMP:  55; 6HR MAX TEMP:  60;

SEATAC AIRPORT CLOUDY    58  49  72 SW6       30.06S
6HR MIN TEMP:  52; 6HR MAX TEMP:  59;

JBLM-MCCHORD   CLOUDY    61  50  67 VRB5      30.05F
6HR MIN TEMP:  47; 6HR MAX TEMP:  61;

PUYALLUP       NOT AVBL
JBLM-FT LEWIS  PTSUNNY   63  50  63 SW9       30.04F
6HR MIN TEMP:  47; 6HR MAX TEMP:  62;

TACOMA NARROWS PTSUNNY   59  49  69 SW6       30.06R
6HR MIN TEMP:  51; 6HR MAX TEMP:  60;

$$

WAZ001-503-506-510-514-515-211900-
NORTH INTERIOR

CITY           SKY/WX    TMP DP  RH WIND       PRES   REMARKS
BELLINGHAM     PTSUNNY   61  52  72 S10       30.03R
6HR MIN TEMP:  57; 6HR MAX TEMP:  62;

FRIDAY HARBOR  CLOUDY    58  51  78 VRB6      30.05S
6HR MIN TEMP:  47; 6HR MAX TEMP:  59;

EASTSOUND      PTSUNNY   59  52  77 S10G18    30.02S
PORT ANGELES   CLOUDY    57  50  77 CALM      30.04F
6HR MIN TEMP:  52; 6HR MAX TEMP:  58;

NAS WHIDBEY    PTSUNNY   60  52  74 NW8       30.05F
6HR MIN TEMP:  51; 6HR MAX TEMP:  61;

BURLINGTON     MOSUNNY   64  54  68 S8        30.05S
$$

WAZ020-022-039-040-504-511-512-211900-
SOUTHWEST INTERIOR

CITY           SKY/WX    TMP DP  RH WIND       PRES   REMARKS
SHELTON        CLOUDY    57  50  77 S3        30.04R
6HR MIN TEMP:  53; 6HR MAX TEMP:  57;

OLYMPIA        PTSUNNY   60  49  66 SW10      30.05F
6HR MIN TEMP:  46; 6HR MAX TEMP:  60;

CHEHALIS       MOCLDY    64  52  63 VRB6      30.06S
KELSO          SUNNY     63  48  59 CALM      30.09S
6HR MIN TEMP:  52; 6HR MAX TEMP:  63;

VANCOUVER      MOSUNNY   65  50  58 VRB6      30.05F
6HR MIN TEMP:  50; 6HR MAX TEMP:  65;

SCAPPOOSE, OR  SUNNY     65  51  60 N3        30.05S
6HR MIN TEMP:  45; 6HR MAX TEMP:  65;

PORTLAND, OR   PTSUNNY   65  51  60 VRB3      30.05F
6HR MIN TEMP:  54; 6HR MAX TEMP:  66;

$$

WAZ021-516-517-211900-
WASHINGTON COAST

CITY           SKY/WX    TMP DP  RH WIND       PRES   REMARKS
FORKS          CLOUDY    63  52  67 VRB3      30.03F
6HR MIN TEMP:  54; 6HR MAX TEMP:  63;

HOQUIAM        PTSUNNY   61  54  77 S6        30.05S
6HR MIN TEMP:  55; 6HR MAX TEMP:  62;

ASTORIA, OR    CLOUDY    64  53  67 CALM      30.05S
6HR MIN TEMP:  53; 6HR MAX TEMP:  65;

$$

WAZ019-023-024-040-518-519-211900-
CASCADE MOUNTAINS AND COLUMBIA GORGE

CITY           SKY/WX    TMP DP  RH WIND       PRES   REMARKS
STAMPEDE PASS  NOT AVBL
TROUTDALE, OR  MOSUNNY   65  50  58 SW5       30.04F
6HR MIN TEMP:  50; 6HR MAX TEMP:  65;

THE DALLES, OR MOSUNNY   72  44  36 NW14      29.96F
6HR MIN TEMP:  60; 6HR MAX TEMP:  72;

$$

WAZ026-027-041>044-520-521-211900-
EAST SLOPES

CITY           SKY/WX    TMP DP  RH WIND       PRES   REMARKS
OMAK           LGT RAIN  69  56  62 NE7       29.95S
6HR MIN TEMP:  60; 6HR MAX TEMP:  75; 6HR PCP:  0.01;

WENATCHEE      SUNNY     74  47  38 W7        29.93F
6HR MIN TEMP:  64; 6HR MAX TEMP:  74;

ELLENSBURG     SUNNY     75  47  36 W5        29.95F
6HR MIN TEMP:  56; 6HR MAX TEMP:  75;

YAKIMA         SUNNY     76  46  34 CALM      29.93F
6HR MIN TEMP:  49; 6HR MAX TEMP:  76;

$$

WAZ028-034-035-211900-
COLUMBIA BASIN

CITY           SKY/WX    TMP DP  RH WIND       PRES   REMARKS
EPHRATA        SUNNY     70  51  51 NE3       29.94S
6HR MIN TEMP:  59; 6HR MAX TEMP:  70;

MOSES LAKE     PTSUNNY   72  52  49 S10       29.94S
6HR MIN TEMP:  54; 6HR MAX TEMP:  72;

PASCO          SUNNY     76  50  40 S10       29.94S
6HR MIN TEMP:  58; 6HR MAX TEMP:  76;

HERMISTON, OR  SUNNY     75  40  28 W13G21    29.95F
6HR MIN TEMP:  61; 6HR MAX TEMP:  75;

$$

WAZ036>038-211900-
NORTHEAST WASHINGTON

CITY           SKY/WX    TMP DP  RH WIND       PRES   REMARKS
SPOKANE GEIGER PTSUNNY   67  49  52 SE3       30.00S
6HR MIN TEMP:  57; 6HR MAX TEMP:  67;

SPOKANE FELTS  MOSUNNY   71  52  50 CALM      30.00S
6HR MIN TEMP:  57; 6HR MAX TEMP:  72;

FAIRCHILD AFB  MOSUNNY   69  49  47 VRB2      30.01R
6HR MIN TEMP:  53; 6HR MAX TEMP:  69;

COEURDALENE,ID MOSUNNY   66  55  68 N3        30.00S
6HR MIN TEMP:  54; 6HR MAX TEMP:  66;

DEER PARK      PTSUNNY   69  53  56 CALM      30.00F
6HR MIN TEMP:  55; 6HR MAX TEMP:  70;

$$

WAZ029>033-211900-
SOUTHEAST WASHINGTON

CITY           SKY/WX    TMP DP  RH WIND       PRES   REMARKS
PULLMAN        SUNNY     69  43  38 SW7       30.02S
6HR MIN TEMP:  50; 6HR MAX TEMP:  70;

LEWISTON, ID   SUNNY     74  44  34 W3        29.97F
6HR MIN TEMP:  59; 6HR MAX TEMP:  74;

WALLA WALLA    MOSUNNY   72  44  36 S8        29.98F
6HR MIN TEMP:  60; 6HR MAX TEMP:  73;

PENDLETON, OR  SUNNY     73  38  27 VRB7      29.97F
6HR MIN TEMP:  52; 6HR MAX TEMP:  73;

$$



USA.gov is the U.S. government's official web portal to all federal, state and local government web resources and services.